"2016-01-07 00:00:00",1262811,2.765,68.04,6.902,1.247,7.849,101.1743,2.295,3.629,50.63,0,109.9,13.31,3.06,30.0
"2016-01-07 00:00:30",1262812,3.345,65.38,7.711,1.369,8.74,101.1647,2.271,3.556,50.71,0,109.9,13.31,3.03,27.4
"2016-01-07 00:01:00",1262813,2.934,62.23,6.333,1.285,7.967,101.1633,2.268,3.59,50.9,0,109.9,13.31,3.03,24.2
"2016-01-07 00:01:30",1262814,3.428,66.66,7.086,1.37,8.7,101.1642,2.27,3.523,51,0,109.9,13.31,3.03,28.7
"2016-01-07 00:02:00",1262815,2.626,65.83,6.48,1.183,7.162,101.1665,2.276,3.472,51.03,0,109.9,13.31,3.04,27.8
"2016-01-07 00:02:30",1262816,2,61.56,1.216,0.083,5.956,101.1577,2.253,3.415,51.06,0,109.9,13.36,3.01,23.6
"2016-01-07 00:03:00",1262817,3.648,74.72,6.932,1.349,8.67,101.1411,2.211,3.477,51.2,0,109.9,13.31,2.97,36.7
"2016-01-07 00:03:30",1262818,2.713,73.56,6.809,1.131,7.057,101.1374,2.201,3.494,51.21,0,109.9,13.32,2.96,35.6
"2016-01-07 00:04:00",1262819,3.705,76.03,6.833,1.307,8.68,101.1371,2.201,3.465,51.23,0,109.8,13.32,2.96,38.0
"2016-01-07 00:04:30",1262820,3.561,77.7,7.493,1.359,8.41,101.1434,2.217,3.491,51.33,0,109.8,13.32,2.98,39.7
"2016-01-07 00:05:00",1262821,3.355,81.5,6.401,1.375,8.2,101.1449,2.22,3.417,51.29,0,109.8,13.32,2.98,43.5
"2016-01-07 00:05:30",1262822,2.274,75.49,2.904,0.057,6.11,101.1423,2.214,3.304,51.27,0,109.8,13.37,2.97,37.5
"2016-01-07 00:06:00",1262823,3.638,84.1,8.62,1.334,8.48,101.1336,2.192,3.439,51.43,0,109.8,13.32,2.95,46.1
"2016-01-07 00:06:30",1262824,3.103,80.3,5.174,1.134,7.383,101.12,2.157,3.38,51.43,0,109.8,13.32,2.92,42.3
"2016-01-07 00:07:00",1262825,3.569,79.43,8.98,1.311,8.15,101.1183,2.153,3.457,51.57,0,109.8,13.33,2.91,41.4
"2016-01-07 00:07:30",1262826,3.183,79.86,6.977,1.148,7.302,101.1195,2.156,3.398,51.57,0,109.8,13.33,2.92,41.9
"2016-01-07 00:08:00",1262827,3.917,83.8,8.3,1.355,8.92,101.1195,2.156,3.393,51.6,0,109.8,13.32,2.92,45.8
"2016-01-07 00:08:30",1262828,3.102,81.6,6.023,1.097,7.666,101.1198,2.156,3.342,51.63,0,109.8,13.32,2.92,43.6
"2016-01-07 00:09:00",1262829,3.135,77.66,5.132,1.151,7.309,101.1198,2.156,3.309,51.67,0,109.8,13.34,2.92,39.7
"2016-01-07 00:09:30",1262830,3.413,81.8,7.168,1.299,8.02,101.1189,2.154,3.389,51.79,0,109.8,13.33,2.91,43.8
"2016-01-07 00:10:00",1262831,3.727,79.07,8.15,1.369,8.27,101.1141,2.142,3.306,51.74,0,109.8,13.33,2.90,41.1
"2016-01-07 00:10:30",1262832,3.089,79.28,7.202,1.212,7.612,101.1096,2.13,3.357,51.89,0,109.8,13.33,2.89,41.3
"2016-01-07 00:11:00",1262833,3.385,82.4,7.876,1.302,7.803,101.1042,2.117,3.296,51.89,0,109.8,13.33,2.88,44.4
"2016-01-07 00:11:30",1262834,3.579,86.2,8.36,1.377,8.82,101.1008,2.108,3.38,51.94,0,109.8,13.33,2.87,48.2
"2016-01-07 00:12:00",1262835,2.989,82.6,5.467,1.038,7.433,101.1014,2.11,3.27,51.82,0,109.8,13.33,2.87,44.6
"2016-01-07 00:12:30",1262836,3.166,81.5,5.478,1.208,7.405,101.1011,2.109,3.311,51.89,0,109.8,13.33,2.87,43.5
"2016-01-07 00:13:00",1262837,3.361,81.9,7.108,1.343,7.811,101.0946,2.092,3.264,51.88,0,109.8,13.34,2.85,43.9
"2016-01-07 00:13:30",1262838,3.474,81,6.813,1.333,8.36,101.0912,2.084,3.372,52.04,0,109.8,13.34,2.84,43.0
"2016-01-07 00:14:00",1262839,3.476,82.1,6.438,1.269,7.73,101.0899,2.08,3.275,52.04,0,109.8,13.34,2.84,44.1
"2016-01-07 00:14:30",1262840,3.794,82,7.588,1.36,9,101.0936,2.09,3.355,52.15,0,109.8,13.34,2.85,44.0
"2016-01-07 00:15:00",1262841,2.551,77.75,1.716,0.673,6.468,101.0933,2.089,3.18,52.01,0,109.8,13.34,2.85,39.8
"2016-01-07 00:15:30",1262842,3.067,79.73,6.187,1.141,7.614,101.0967,2.098,3.313,52.14,0,109.8,13.34,2.86,41.7
"2016-01-07 00:16:00",1262843,3.909,87.8,6.74,1.341,8.93,101.0979,2.1,3.296,52.09,0,109.8,13.33,2.86,49.8
"2016-01-07 00:16:30",1262844,3.703,85.6,7.127,1.398,8.74,101.1013,2.109,3.341,52.08,0,109.8,13.34,2.87,47.6
"2016-01-07 00:17:00",1262845,3.586,80.6,7.756,1.362,7.859,101.103,2.114,3.253,52.04,0,109.8,13.33,2.87,42.6
"2016-01-07 00:17:30",1262846,3.5,78.46,8.1,1.331,8.11,101.1039,2.116,3.344,52.16,0,109.8,13.33,2.88,40.5
"2016-01-07 00:18:00",1262847,3.416,76.02,7.445,1.332,7.921,101.1056,2.12,3.256,52.08,0,109.8,13.33,2.88,38.0
"2016-01-07 00:18:30",1262848,3.008,81.7,6.757,1.189,7.631,101.1079,2.126,3.263,52.08,0,109.8,13.33,2.89,43.7
"2016-01-07 00:19:00",1262849,3.669,90,4.983,1.323,8.78,101.1104,2.133,3.35,52.19,0,109.8,13.33,2.89,52.0
"2016-01-07 00:19:30",1262850,3.019,82.9,5.98,1.07,7.061,101.1113,2.135,3.223,52.09,0,109.8,13.33,2.89,44.9
"2016-01-07 00:20:00",1262851,3.701,94,8.55,1.396,8.43,101.1119,2.136,3.286,52.16,0,109.8,13.34,2.90,56.0
"2016-01-07 00:20:30",1262852,3.245,91.3,6.526,1.261,7.585,101.113,2.139,3.244,52.11,0,109.8,13.34,2.90,53.3
"2016-01-07 00:21:00",1262853,3.442,91.4,8.14,1.355,8.52,101.1153,2.145,3.355,52.16,0,109.8,13.34,2.90,53.4
"2016-01-07 00:21:30",1262854,3.119,95.8,8.58,1.328,7.9,101.1179,2.152,3.191,51.96,0,109.8,13.34,2.91,57.8
"2016-01-07 00:22:00",1262855,3.321,87.9,7.383,1.358,8.67,101.1173,2.15,3.341,52.14,0,109.8,13.34,2.91,49.9
"2016-01-07 00:22:30",1262856,2.579,82.8,4.546,0.861,6.709,101.1193,2.155,3.244,52.07,0,109.8,13.34,2.91,44.8
"2016-01-07 00:23:00",1262857,3.04,91,4.681,1.223,7.615,101.1193,2.155,3.307,52.2,0,109.8,13.34,2.91,53.0
"2016-01-07 00:23:30",1262858,3.548,99.6,9.23,1.374,8.23,101.1199,2.157,3.29,52.18,0,109.8,13.34,2.92,61.6
"2016-01-07 00:24:00",1262859,3.138,88.7,9.02,1.318,8.48,101.1202,2.157,3.385,52.24,0,109.8,13.35,2.92,50.7
"2016-01-07 00:24:30",1262860,3.32,92.1,8.78,1.351,8.16,101.1202,2.157,3.282,52.15,0,109.8,13.34,2.92,54.1
"2016-01-07 00:25:00",1262861,3.767,91.8,8.18,1.358,8.82,101.1202,2.157,3.356,52.22,0,109.8,13.35,2.92,53.8
"2016-01-07 00:25:30",1262862,3.099,91.8,6.925,1.224,7.785,101.1202,2.157,3.256,52.12,0,109.8,13.35,2.92,53.8
"2016-01-07 00:26:00",1262863,2.296,88.8,4.556,0.481,6.402,101.1202,2.157,3.214,52.03,0,109.8,13.36,2.92,50.8
"2016-01-07 00:26:30",1262864,3.684,98.9,7.598,1.364,8.82,101.1202,2.157,3.311,52.1,0,109.8,13.35,2.92,60.9
"2016-01-07 00:27:00",1262865,2.987,89.8,7.789,1.343,7.691,101.1202,2.157,3.298,52.08,0,109.8,13.35,2.92,51.8
"2016-01-07 00:27:30",1262866,2.724,91.3,7.269,1.168,7.789,101.1202,2.157,3.324,52.11,0,109.8,13.35,2.92,53.3
"2016-01-07 00:28:00",1262867,3.679,95.1,6.891,1.44,9.5,101.1202,2.157,3.346,52.06,0,109.8,13.35,2.92,57.1
"2016-01-07 00:28:30",1262868,3.042,93.6,8.29,1.219,7.676,101.1202,2.157,3.315,52.05,0,109.8,13.35,2.92,55.6
"2016-01-07 00:29:00",1262869,2.87,89.8,7.936,1.147,7.301,101.1202,2.157,3.25,51.95,0,109.8,13.35,2.92,51.8
"2016-01-07 00:29:30",1262870,3.151,91.8,5.911,1.226,7.542,101.1202,2.157,3.286,51.98,0,109.8,13.35,2.92,53.8
"2016-01-07 00:30:00",1262871,3.394,98.3,5.744,1.327,8.52,101.1202,2.157,3.419,52.07,0,109.8,13.35,2.92,60.3
"2016-01-07 00:30:30",1262872,3.573,98.9,7.888,1.318,9.02,101.1202,2.157,3.337,51.98,0,109.8,13.35,2.92,60.9
"2016-01-07 00:31:00",1262873,3.266,95.6,7.473,1.293,8.5,101.1202,2.157,3.301,51.93,0,109.8,13.35,2.92,57.6
"2016-01-07 00:31:30",1262874,2.968,95.7,5.93,1.199,8.17,101.1202,2.157,3.372,51.97,0,109.8,13.35,2.92,57.7
"2016-01-07 00:32:00",1262875,2.761,93.6,7.311,1.346,8,101.1202,2.157,3.295,51.89,0,109.8,13.35,2.92,55.6
"2016-01-07 00:32:30",1262876,2.162,87.1,2.521,0.077,6.118,101.1202,2.157,3.191,51.78,0,109.8,13.39,2.92,49.1
"2016-01-07 00:33:00",1262877,3.254,97.4,7.574,1.312,8.22,101.1202,2.157,3.396,51.96,0,109.7,13.35,2.92,59.4
"2016-01-07 00:33:30",1262878,2.868,95.3,6.284,1.232,8.08,101.121,2.16,3.365,51.93,0,109.7,13.35,2.92,57.3
"2016-01-07 00:34:00",1262879,3.304,98.6,7.243,1.371,8.65,101.1207,2.159,3.307,51.86,0,109.8,13.35,2.92,60.6
"2016-01-07 00:34:30",1262880,3.398,99.6,7.443,1.354,9.25,101.1213,2.16,3.455,51.97,0,109.8,13.35,2.92,61.6
"2016-01-07 00:35:00",1262881,2.926,93.9,7.234,1.162,7.898,101.1227,2.164,3.366,51.91,0,109.8,13.35,2.92,55.9
"2016-01-07 00:35:30",1262882,2.822,92.9,6.384,1.109,7.148,101.125,2.17,3.236,51.73,0,109.8,13.35,2.93,54.9
"2016-01-07 00:36:00",1262883,2.142,93.5,2.951,0.513,6.18,101.1265,2.173,3.201,51.7,0,109.8,13.35,2.93,55.5
"2016-01-07 00:36:30",1262884,3.45,94.3,8.28,1.358,9.02,101.1273,2.176,3.39,51.87,0,109.8,13.35,2.94,56.3
"2016-01-07 00:37:00",1262885,3.224,92.8,6.699,1.286,8.05,101.1293,2.181,3.324,51.79,0,109.8,13.35,2.94,54.8
"2016-01-07 00:37:30",1262886,3.369,93.9,7.49,1.342,9.1,101.131,2.185,3.358,51.78,0,109.8,13.35,2.94,55.9
"2016-01-07 00:38:00",1262887,3.406,96.9,6.64,1.284,9.32,101.1313,2.186,3.384,51.78,0,109.8,13.35,2.95,58.9
"2016-01-07 00:38:30",1262888,3.448,96.3,7.307,1.311,8.31,101.1336,2.192,3.299,51.7,0,109.8,13.35,2.95,58.3
"2016-01-07 00:39:00",1262889,2.216,89.5,3.567,0.125,6.16,101.1339,2.192,3.214,51.6,0,109.8,13.4,2.95,51.5
"2016-01-07 00:39:30",1262890,3.051,90.2,5.644,1.237,7.441,101.1354,2.196,3.31,51.65,0,109.8,13.36,2.96,52.2
"2016-01-07 00:40:00",1262891,3.337,95.4,7.658,1.366,8.31,101.1373,2.201,3.411,51.74,0,109.8,13.36,2.96,57.4
"2016-01-07 00:40:30",1262892,3.372,94.7,7.277,1.375,8.85,101.1382,2.203,3.424,51.76,0,109.8,13.36,2.96,56.7
"2016-01-07 00:41:00",1262893,3.172,92.8,7.012,1.279,8.44,101.1368,2.2,3.366,51.73,0,109.8,13.36,2.96,54.8
"2016-01-07 00:41:30",1262894,3.634,96.2,6.857,1.353,9.1,101.1376,2.202,3.393,51.75,0,109.8,13.36,2.96,58.2
"2016-01-07 00:42:00",1262895,2.537,93.2,3.573,0.545,6.605,101.1356,2.197,3.281,51.6,0,109.8,13.37,2.96,55.2
"2016-01-07 00:42:30",1262896,2.994,99.6,6.134,1.136,7.246,101.1388,2.205,3.27,51.54,0,109.8,13.36,2.96,61.6
"2016-01-07 00:43:00",1262897,3.004,96.2,5.913,1.151,7.641,101.1359,2.198,3.359,51.61,0,109.8,13.36,2.96,58.2
"2016-01-07 00:43:30",1262898,4.116,103.1,7.698,1.306,9.58,101.1368,2.2,3.416,51.64,0,109.8,13.36,2.96,65.1
"2016-01-07 00:44:00",1262899,3.432,95.9,6.51,1.351,8.72,101.1393,2.206,3.382,51.58,0,109.8,13.37,2.97,57.9
"2016-01-07 00:44:30",1262900,3.44,95.5,7.718,1.4,9.14,101.1405,2.209,3.407,51.65,0,109.8,13.36,2.97,57.5
"2016-01-07 00:45:00",1262901,3.244,95.8,7.561,1.346,8.6,101.139,2.206,3.395,51.6,0,109.8,13.36,2.97,57.8
"2016-01-07 00:45:30",1262902,2.075,90.9,1.517,0.12,6.271,101.1442,2.219,3.225,51.47,0,109.8,13.41,2.98,52.9
"2016-01-07 00:46:00",1262903,3.123,97.3,7.264,1.289,8.02,101.1433,2.217,3.341,51.53,0,109.8,13.37,2.98,59.3
"2016-01-07 00:46:30",1262904,3.485,98.3,6.743,1.341,8.37,101.1451,2.221,3.341,51.48,0,109.8,13.36,2.98,60.3
"2016-01-07 00:47:00",1262905,3.153,92.3,6.861,1.376,8.3,101.1459,2.223,3.334,51.5,0,109.8,13.37,2.98,54.3
"2016-01-07 00:47:30",1262906,3.935,95.8,6.328,1.297,10.47,101.1471,2.226,3.497,51.65,0,109.8,13.36,2.99,57.8
"2016-01-07 00:48:00",1262907,3.224,93.4,7.173,1.237,8.15,101.1476,2.227,3.353,51.51,0,109.8,13.37,2.99,55.4
"2016-01-07 00:48:30",1262908,3.107,92.7,6.465,1.216,7.617,101.1476,2.227,3.326,51.47,0,109.8,13.37,2.99,54.7
"2016-01-07 00:49:00",1262909,2.388,86.6,3.138,0.511,6.333,101.1471,2.226,3.251,51.39,0,109.8,13.37,2.99,48.6
"2016-01-07 00:49:30",1262910,3.446,91.4,7.349,1.381,8.34,101.1471,2.226,3.385,51.45,0,109.8,13.36,2.99,53.4
"2016-01-07 00:50:00",1262911,3.594,95,8.06,1.383,8.91,101.1482,2.229,3.417,51.51,0,109.8,13.37,2.99,57.0
"2016-01-07 00:50:30",1262912,3.222,96.3,6.952,1.255,8.75,101.1471,2.226,3.434,51.51,0,109.8,13.36,2.99,58.3
"2016-01-07 00:51:00",1262913,3.598,99.9,7.29,1.362,9.34,101.1473,2.227,3.428,51.47,0,109.8,13.36,2.99,61.9
"2016-01-07 00:51:30",1262914,3.726,102,7.76,1.37,9.35,101.1491,2.231,3.446,51.43,0,109.8,13.36,2.99,64.0
"2016-01-07 00:52:00",1262915,2.275,94.9,2.969,0.474,6.319,101.1499,2.233,3.283,51.24,0,109.8,13.37,2.99,56.9
"2016-01-07 00:52:30",1262916,2.859,94.8,5.754,1.212,7.533,101.1505,2.235,3.375,51.28,0,109.8,13.36,2.99,56.8
"2016-01-07 00:53:00",1262917,3.251,96.7,8.32,1.388,8.46,101.1488,2.23,3.424,51.35,0,109.8,13.36,2.99,58.7
"2016-01-07 00:53:30",1262918,3.519,100.6,6.45,1.37,9.26,101.1516,2.238,3.454,51.29,0,109.8,13.36,3.00,62.6
"2016-01-07 00:54:00",1262919,3.07,99.3,6.739,1.305,8.24,101.1548,2.246,3.444,51.2,0,109.8,13.36,3.01,61.3
"2016-01-07 00:54:30",1262920,3.367,99.5,6.465,1.303,9.3,101.157,2.251,3.467,51.09,0,109.8,13.37,3.01,61.5
"2016-01-07 00:55:00",1262921,2.359,93.8,4.914,0.943,7.158,101.1601,2.259,3.38,50.97,0,109.8,13.37,3.02,55.8
"2016-01-07 00:55:30",1262922,1.991,86.4,3.782,0.088,6.411,101.1641,2.27,3.293,50.8,0,109.8,13.41,3.03,48.4
"2016-01-07 00:56:00",1262923,2.809,89.6,7.112,1.301,8.11,101.1681,2.28,3.395,50.92,0,109.8,13.37,3.04,51.6
"2016-01-07 00:56:30",1262924,2.969,87.7,6.815,1.297,8.1,101.1703,2.285,3.4,50.93,0,109.8,13.37,3.05,49.7
"2016-01-07 00:57:00",1262925,3.466,93.6,7.639,1.411,9.21,101.1686,2.281,3.477,50.97,0,109.8,13.37,3.04,55.6
"2016-01-07 00:57:30",1262926,3.581,93.6,7.199,1.349,9.17,101.1692,2.283,3.439,50.84,0,109.8,13.37,3.04,55.6
"2016-01-07 00:58:00",1262927,3.195,94.4,5.926,1.3,8.44,101.1681,2.28,3.478,50.79,0,109.8,13.37,3.04,56.4
"2016-01-07 00:58:30",1262928,2.649,90.6,5.201,1.146,6.993,101.1684,2.28,3.306,50.52,0,109.8,13.37,3.04,52.6
"2016-01-07 00:59:00",1262929,2.346,90.6,5.742,1.07,6.98,101.1678,2.279,3.301,50.45,0,109.8,13.37,3.04,52.6
"2016-01-07 00:59:30",1262930,2.846,88.8,6.444,1.291,8.62,101.1684,2.28,3.51,50.75,0,109.8,13.37,3.04,50.8
"2016-01-07 01:00:00",1262931,3.089,90.4,6.684,1.395,8.64,101.1675,2.278,3.405,50.79,0,109.8,13.37,3.04,52.4
"2016-01-07 01:00:30",1262932,3.064,93,7.734,1.314,9.08,101.1681,2.28,3.518,50.98,0,109.8,13.37,3.04,55.0
"2016-01-07 01:01:00",1262933,3.358,93.5,7.034,1.377,9.52,101.1678,2.279,3.473,50.95,0,109.8,13.37,3.04,55.5
"2016-01-07 01:01:30",1262934,3.227,92,7.04,1.35,8.83,101.1712,2.288,3.466,50.93,0,109.8,13.37,3.05,54.0
"2016-01-07 01:02:00",1262935,1.906,84.1,1.233,0.15,6.345,101.1712,2.288,3.317,50.77,0,109.8,13.42,3.05,46.1
"2016-01-07 01:02:30",1262936,2.386,83,4.828,0.904,7.018,101.1709,2.287,3.312,50.75,0,109.7,13.37,3.05,45.0
"2016-01-07 01:03:00",1262937,2.763,88.6,6.607,1.288,8.7,101.1718,2.289,3.525,50.91,0,109.8,13.37,3.05,50.6
"2016-01-07 01:03:30",1262938,3.364,90.5,6.879,1.338,9.3,101.1732,2.293,3.453,50.86,0,109.8,13.37,3.05,52.5
"2016-01-07 01:04:00",1262939,3.349,89.1,7.184,1.374,9.03,101.176,2.3,3.466,50.72,0,109.8,13.37,3.06,51.1
"2016-01-07 01:04:30",1262940,3.022,92.3,6.904,1.306,8.84,101.1769,2.302,3.489,50.65,0,109.8,13.37,3.06,54.3
"2016-01-07 01:05:00",1262941,3.069,91.5,7.25,1.279,8.56,101.1783,2.306,3.509,50.54,0,109.8,13.37,3.07,53.5
"2016-01-07 01:05:30",1262942,2.101,85.1,0.826,0.068,6.368,101.1794,2.309,3.342,50.3,0,109.8,13.41,3.07,47.1
"2016-01-07 01:06:00",1262943,2.508,85.7,5.672,1.119,7.447,101.1817,2.314,3.374,50.31,0,109.8,13.37,3.07,47.7
"2016-01-07 01:06:30",1262944,3.103,86.7,7.131,1.311,9.16,101.1814,2.314,3.541,50.48,0,109.8,13.37,3.07,48.7
"2016-01-07 01:07:00",1262945,3.287,84.8,7.403,1.342,9.07,101.1825,2.316,3.498,50.42,0,109.8,13.37,3.08,46.8
"2016-01-07 01:07:30",1262946,2.883,79.62,6.46,1.312,8.4,101.1851,2.323,3.528,50.47,0,109.8,13.37,3.08,41.6
"2016-01-07 01:08:00",1262947,3.403,81.6,7.106,1.368,9.31,101.187,2.328,3.524,50.48,0,109.7,13.36,3.09,43.6
"2016-01-07 01:08:30",1262948,2.644,81.2,6.424,1.216,7.826,101.1865,2.327,3.434,50.42,0,109.8,13.36,3.09,43.2
"2016-01-07 01:09:00",1262949,1.953,76.7,1.381,0.071,6.198,101.1859,2.325,3.34,50.33,0,109.8,13.41,3.09,38.7
"2016-01-07 01:09:30",1262950,2.981,80.8,6.43,1.241,7.799,101.1862,2.326,3.458,50.41,0,109.8,13.37,3.09,42.8
"2016-01-07 01:10:00",1262951,3.583,88.2,8.21,1.376,9.27,101.1876,2.329,3.507,50.33,0,109.8,13.37,3.09,50.2
"2016-01-07 01:10:30",1262952,3.197,86.9,7.674,1.352,8.68,101.1882,2.331,3.456,50.02,0,109.8,13.37,3.09,48.9
"2016-01-07 01:11:00",1262953,3.755,84,7.067,1.341,10.02,101.1882,2.331,3.551,50.14,0,109.8,13.37,3.09,46.0
"2016-01-07 01:11:30",1262954,2.758,78.14,5.773,1.167,7.875,101.1885,2.332,3.523,50.24,0,109.8,13.37,3.09,40.1
"2016-01-07 01:12:00",1262955,2.7,77.85,5.734,1.168,7.314,101.1885,2.332,3.382,50.19,0,109.8,13.37,3.09,39.8
"2016-01-07 01:12:30",1262956,2.23,74.06,2.804,0.496,6.196,101.1885,2.332,3.364,50.19,0,109.8,13.37,3.09,36.1
"2016-01-07 01:13:00",1262957,3.223,77.67,6.59,1.362,8.6,101.1885,2.332,3.563,50.41,0,109.8,13.37,3.09,39.7
"2016-01-07 01:13:30",1262958,3.234,75.53,7.705,1.381,9.02,101.1885,2.332,3.507,50.38,0,109.7,13.37,3.09,37.5
"2016-01-07 01:14:00",1262959,3.296,73.14,7.728,1.375,8.56,101.1885,2.332,3.46,50.34,0,109.8,13.37,3.09,35.1
"2016-01-07 01:14:30",1262960,3.11,69.66,7.515,1.335,8.13,101.1885,2.332,3.515,50.53,0,109.7,13.37,3.09,31.7
"2016-01-07 01:15:00",1262961,2.89,67.96,5.282,1.227,7.651,101.1885,2.332,3.487,50.53,0,109.8,13.37,3.09,30.0
"2016-01-07 01:15:30",1262962,2.249,62.96,4.568,0.688,6.575,101.1885,2.332,3.409,50.45,0,109.8,13.38,3.09,25.0
"2016-01-07 01:16:00",1262963,2.712,66.44,7.915,1.179,7.394,101.1885,2.332,3.463,50.51,0,109.8,13.37,3.09,28.4
"2016-01-07 01:16:30",1262964,2.924,70.8,6.899,1.274,8.5,101.1885,2.332,3.516,50.48,0,109.8,13.37,3.09,32.8
"2016-01-07 01:17:00",1262965,3.078,69.09,7.553,1.38,8.54,101.1885,2.332,3.497,50.37,0,109.8,13.37,3.09,31.1
"2016-01-07 01:17:30",1262966,2.467,64.84,6.534,1.168,7.391,101.1885,2.332,3.49,50.35,0,109.8,13.37,3.09,26.8
"2016-01-07 01:18:00",1262967,2.875,70.39,6.879,1.286,7.975,101.1885,2.332,3.574,50.35,0,109.8,13.37,3.09,32.4
"2016-01-07 01:18:30",1262968,3.385,71.76,7.107,1.341,8.55,101.1885,2.332,3.504,50.08,0,109.7,13.37,3.09,33.8
"2016-01-07 01:19:00",1262969,2.022,64.6,0.777,0.051,6.167,101.1885,2.332,3.393,49.9,0,109.8,13.37,3.09,26.6
"2016-01-07 01:19:30",1262970,2.714,66.97,6.426,1.155,7.437,101.1885,2.332,3.537,50.06,0,109.8,13.38,3.09,29.0
"2016-01-07 01:20:00",1262971,3.307,70.71,7.329,1.383,8.76,101.1887,2.332,3.571,50.1,0,109.8,13.38,3.09,32.7
"2016-01-07 01:20:30",1262972,3.392,67.23,7.273,1.341,8.51,101.1887,2.332,3.538,49.97,0,109.8,13.38,3.09,29.2
"2016-01-07 01:21:00",1262973,2.524,58.89,5.497,0.949,6.936,101.1887,2.332,3.481,50.05,0,109.8,13.38,3.09,20.9
"2016-01-07 01:21:30",1262974,3.236,61.49,7.105,1.307,7.935,101.1907,2.337,3.588,50.36,0,109.8,13.38,3.10,23.5
"2016-01-07 01:22:00",1262975,3.121,60.88,6.966,1.274,7.972,101.193,2.343,3.521,50.44,0,109.8,13.37,3.10,22.9
"2016-01-07 01:22:30",1262976,3.135,60.57,6.493,1.246,8.25,101.1995,2.36,3.498,50.47,0,109.8,13.37,3.12,22.6
"2016-01-07 01:23:00",1262977,3.218,56.66,6.347,1.323,7.898,101.204,2.371,3.6,50.56,0,109.8,13.37,3.13,18.7
"2016-01-07 01:23:30",1262978,3.693,58.85,6.807,1.377,8.71,101.2089,2.384,3.592,50.5,0,109.8,13.37,3.14,20.8
"2016-01-07 01:24:00",1262979,2.851,54.17,6.411,1.174,6.962,101.2114,2.39,3.521,50.47,0,109.7,13.37,3.15,16.2
"2016-01-07 01:24:30",1262980,2.831,53.38,5.809,1.168,6.988,101.2131,2.395,3.525,50.48,0,109.7,13.37,3.15,15.4
"2016-01-07 01:25:00",1262981,3.185,54.49,6.989,1.308,7.949,101.2168,2.404,3.611,50.52,0,109.7,13.37,3.16,16.5
"2016-01-07 01:25:30",1262982,3.498,54.54,7.087,1.319,8.05,101.2188,2.409,3.535,50.41,0,109.8,13.37,3.17,16.5
"2016-01-07 01:26:00",1262983,2.947,52.42,6.137,1.214,7.506,101.2216,2.416,3.589,50.42,0,109.7,13.37,3.18,14.4
"2016-01-07 01:26:30",1262984,3.521,54.74,7.133,1.405,8.26,101.2247,2.424,3.559,50.4,0,109.7,13.37,3.18,16.7
"2016-01-07 01:27:00",1262985,3.201,51.68,6.891,1.312,7.877,101.2238,2.422,3.628,50.49,0,109.7,13.37,3.18,13.7
"2016-01-07 01:27:30",1262986,2.468,46.51,3.618,0.69,6.445,101.2247,2.424,3.433,50.28,0,109.7,13.38,3.18,8.5
"2016-01-07 01:28:00",1262987,3.447,52.54,7.151,1.353,8.55,101.2244,2.423,3.645,50.48,0,109.7,13.37,3.18,14.5
"2016-01-07 01:28:30",1262988,3.708,52.77,7.319,1.343,8.77,101.225,2.425,3.633,50.43,0,109.8,13.38,3.19,14.8
"2016-01-07 01:29:00",1262989,3.741,52.99,7.825,1.366,8.94,101.2256,2.426,3.596,50.36,0,109.7,13.37,3.19,15.0
"2016-01-07 01:29:30",1262990,3.151,48.06,6.051,1.248,7.722,101.2236,2.421,3.566,50.29,0,109.7,13.38,3.18,10.1
"2016-01-07 01:30:00",1262991,3.337,52.96,7.312,1.344,8.09,101.2224,2.418,3.626,50.36,0,109.8,13.38,3.18,15.0
"2016-01-07 01:30:30",1262992,2.584,48.61,5.958,1.08,6.369,101.2199,2.412,3.435,50.09,0,109.7,13.38,3.17,10.6
"2016-01-07 01:31:00",1262993,3.149,60.46,9.49,1.335,8.16,101.2163,2.403,3.541,50.16,0,109.7,13.38,3.16,22.5
"2016-01-07 01:31:30",1262994,2.82,64.87,7.189,1.326,7.926,101.2123,2.393,3.586,49.96,0,109.8,13.38,3.15,26.9
"2016-01-07 01:32:00",1262995,3.06,64.25,7.3,1.371,8.45,101.2084,2.382,3.626,49.78,0,109.7,13.38,3.14,26.2
"2016-01-07 01:32:30",1262996,2.961,61.39,6.885,1.31,8.18,101.2007,2.363,3.571,49.68,0,109.8,13.38,3.12,23.4
"2016-01-07 01:33:00",1262997,2.786,61.32,7.116,1.288,7.334,101.1993,2.359,3.549,49.62,0,109.8,13.38,3.12,23.3
"2016-01-07 01:33:30",1262998,2.788,63.51,5.268,1.138,7.248,101.1965,2.352,3.534,49.59,0,109.7,13.37,3.11,25.5
"2016-01-07 01:34:00",1262999,2.552,64.23,5.035,0.825,6.243,101.1956,2.35,3.422,49.48,0,109.7,13.38,3.11,26.2
"2016-01-07 01:34:30",1263000,3.271,70.21,7.063,1.293,7.792,101.1959,2.351,3.6,49.57,0,109.7,13.38,3.11,32.2
"2016-01-07 01:35:00",1263001,3.039,65.05,5.92,1.204,7.217,101.1968,2.353,3.508,49.45,0,109.7,13.38,3.11,27.1
"2016-01-07 01:35:30",1263002,3.827,65.22,7.387,1.277,9.01,101.1985,2.357,3.563,49.56,0,109.7,13.38,3.12,27.2
"2016-01-07 01:36:00",1263003,3.385,61.15,7.501,1.371,8.13,101.1976,2.355,3.562,49.73,0,109.7,13.38,3.12,23.2
"2016-01-07 01:36:30",1263004,3.66,61.19,6.854,1.369,8.25,101.1976,2.355,3.596,49.87,0,109.7,13.37,3.12,23.2
"2016-01-07 01:37:00",1263005,2.5,54.85,2.547,0.686,5.802,101.1982,2.356,3.393,49.75,0,109.7,13.37,3.12,16.8
"2016-01-07 01:37:30",1263006,3.196,63.59,7.207,1.253,7.188,101.1996,2.36,3.51,49.91,0,109.7,13.38,3.12,25.6
"2016-01-07 01:38:00",1263007,3.604,66.47,7.291,1.348,8.61,101.2019,2.366,3.594,49.97,0,109.7,13.38,3.13,28.5
"2016-01-07 01:38:30",1263008,3.347,62.48,6.709,1.3,7.997,101.2022,2.367,3.592,49.91,0,109.7,13.38,3.13,24.5
"2016-01-07 01:39:00",1263009,3.66,59.95,7.326,1.373,8.49,101.2016,2.365,3.579,49.87,0,109.7,13.37,3.13,22.0
"2016-01-07 01:39:30",1263010,3.338,57.47,6.495,1.349,7.763,101.1968,2.353,3.47,49.88,0,109.8,13.37,3.11,19.5
"2016-01-07 01:40:00",1263011,2.89,61.01,5.394,1.188,7.14,101.1937,2.345,3.474,49.86,0,109.7,13.37,3.11,23.0
"2016-01-07 01:40:30",1263012,2.876,63.33,6.585,1.194,7.179,101.1914,2.339,3.457,49.79,0,109.7,13.37,3.10,25.3
"2016-01-07 01:41:00",1263013,3.004,59.88,7.044,1.285,7.387,101.1869,2.328,3.493,49.82,0,109.7,13.38,3.09,21.9
"2016-01-07 01:41:30",1263014,3.206,61.72,7.153,1.346,8.19,101.1841,2.321,3.563,49.94,0,109.7,13.37,3.08,23.7
"2016-01-07 01:42:00",1263015,2.994,59.05,6.942,1.271,7.804,101.1847,2.322,3.541,49.9,0,109.7,13.37,3.08,21.0
"2016-01-07 01:42:30",1263016,3.557,65.53,6.7,1.378,8.5,101.187,2.328,3.506,49.91,0,109.7,13.37,3.09,27.5
"2016-01-07 01:43:00",1263017,2.76,61.84,6.672,1.16,6.845,101.1861,2.326,3.449,49.89,0,109.7,13.37,3.09,23.8
"2016-01-07 01:43:30",1263018,2.587,62.05,5.028,0.941,6.089,101.1776,2.304,3.354,49.84,0,109.7,13.37,3.06,24.0
"2016-01-07 01:44:00",1263019,3.077,62.48,6.514,1.293,6.925,101.1734,2.293,3.455,49.98,0,109.7,13.38,3.05,24.5
"2016-01-07 01:44:30",1263020,3.66,68.05,8.26,1.383,8.43,101.1734,2.293,3.493,50.18,0,109.7,13.38,3.05,30.1
"2016-01-07 01:45:00",1263021,2.999,70.72,7.208,1.222,7.064,101.172,2.29,3.476,50.3,0,109.7,13.38,3.05,32.7
"2016-01-07 01:45:30",1263022,3.211,75.66,7.699,1.336,8.11,101.1734,2.293,3.523,50.39,0,109.7,13.38,3.05,37.7
"2016-01-07 01:46:00",1263023,3.303,75.89,5.886,1.244,7.27,101.176,2.3,3.435,50.31,0,109.7,13.38,3.06,37.9
"2016-01-07 01:46:30",1263024,2.776,74.97,5.664,1.036,6.563,101.1709,2.287,3.391,50.31,0,109.7,13.39,3.05,37.0
"2016-01-07 01:47:00",1263025,3.029,78.42,5.478,1.223,7.02,101.1615,2.263,3.424,50.44,0,109.7,13.39,3.02,40.4
"2016-01-07 01:47:30",1263026,3.811,83.7,6.878,1.342,8.73,101.1581,2.254,3.484,50.61,0,109.7,13.39,3.01,45.7
"2016-01-07 01:48:00",1263027,3.735,85.2,6.715,1.359,7.979,101.1499,2.233,3.402,50.58,0,109.7,13.38,2.99,47.2
"2016-01-07 01:48:30",1263028,3.379,85.4,6.732,1.311,8.06,101.1423,2.214,3.504,50.72,0,109.7,13.39,2.97,47.4
"2016-01-07 01:49:00",1263029,3.281,81.4,7.086,1.388,7.826,101.1423,2.214,3.395,50.69,0,109.7,13.38,2.97,43.4
"2016-01-07 01:49:30",1263030,2.8,75.35,6.032,1.249,7.271,101.1434,2.217,3.349,50.67,0,109.7,13.39,2.98,37.3